Total_Precipitation_Accumulation
0.78 0.74 0.75 0.85 0.84 0.75 0.73 0.83 1.00 1.17 1.35 1.50 1.65 1.85 1.97 2.01 1.95 1.90 1.92 1.80 1.59 1.66 1.80 1.79 2.00 2.05 2.03 2.07 2.05 2.23 2.29 2.04 1.91 2.28 2.22 1.79 1.45 1.31 1.39 1.48 1.52 1.63 1.66
0.65 0.66 0.59 0.60 0.63 0.65 0.68 0.77 0.94 1.20 1.41 1.61 1.82 1.99 2.35 2.48 2.41 2.39 2.26 2.16 2.03 2.03 1.95 2.04 2.29 2.32 2.43 2.53 2.40 2.59 2.73 2.42 2.14 2.62 3.12 2.70 2.20 1.53 1.27 1.38 1.55 1.74 1.77
0.55 0.58 0.53 0.50 0.47 0.49 0.58 0.70 0.83 1.05 1.37 1.69 1.96 2.16 2.37 2.62 2.69 2.53 2.45 2.41 2.44 2.47 2.35 2.30 2.45 2.48 2.56 2.77 2.80 2.76 2.93 2.91 2.56 2.52 3.13 3.15 2.75 2.26 1.67 1.48 1.54 1.74 1.86
0.54 0.53 0.50 0.50 0.48 0.52 0.60 0.72 0.82 0.97 1.18 1.45 1.83 2.16 2.42 2.73 2.73 2.58 2.53 2.56 2.61 2.63 2.56 2.52 2.60 2.62 2.61 2.70 2.75 2.76 3.06 3.32 3.10 2.79 2.55 2.52 2.56 2.60 2.23 1.81 1.64 1.76 1.86
0.55 0.52 0.51 0.51 0.54 0.57 0.63 0.77 0.89 1.02 1.18 1.44 1.77 2.14 2.38 2.59 2.71 2.65 2.51 2.43 2.50 2.42 2.30 2.40 2.56 2.58 2.60 2.60 2.76 2.89 3.18 3.24 3.18 3.07 2.92 2.72 2.54 2.16 2.25 2.22 1.98 1.91 1.82
0.54 0.57 0.60 0.61 0.60 0.64 0.74 0.87 1.00 1.16 1.29 1.43 1.58 1.75 1.97 2.27 2.40 2.50 2.48 2.46 2.47 2.33 2.18 2.24 2.32 2.41 2.47 2.44 2.49 2.68 2.87 3.13 3.27 3.20 3.02 3.00 2.92 2.70 2.49 2.18 2.06 2.18 2.05
0.61 0.69 0.76 0.75 0.73 0.75 0.89 1.01 1.11 1.18 1.23 1.23 1.31 1.44 1.63 1.87 1.99 2.08 2.21 2.25 2.31 2.29 2.27 2.19 2.20 2.24 2.27 2.35 2.54 2.55 2.63 2.84 3.05 3.08 3.01 3.00 2.86 2.79 2.75 2.47 2.12 2.07 2.02
0.73 0.87 0.99 1.02 0.95 0.94 0.98 1.00 1.10 1.08 1.08 1.13 1.20 1.30 1.41 1.57 1.64 1.70 1.83 1.90 1.87 1.87 1.86 1.92 2.02 2.13 2.19 2.25 2.41 2.50 2.51 2.57 2.64 2.67 2.86 2.97 2.86 2.66 2.56 2.54 2.59 2.35 2.13
0.88 1.04 1.21 1.25 1.16 1.10 1.06 1.08 1.18 1.14 1.07 1.12 1.25 1.31 1.34 1.36 1.35 1.41 1.36 1.38 1.44 1.46 1.48 1.53 1.68 1.87 2.00 2.03 2.15 2.33 2.32 2.39 2.40 2.47 2.55 2.57 2.65 2.54 2.34 2.29 2.40 2.54 2.35
1.10 1.23 1.34 1.35 1.30 1.33 1.31 1.16 1.16 1.22 1.17 1.27 1.34 1.30 1.27 1.24 1.24 1.25 1.25 1.24 1.31 1.38 1.45 1.49 1.51 1.62 1.70 1.80 1.95 2.08 2.17 2.22 2.19 2.18 2.25 2.31 2.36 2.37 2.32 2.29 2.31 2.33 2.32
1.30 1.35 1.42 1.40 1.28 1.27 1.25 1.25 1.21 1.20 1.23 1.28 1.33 1.24 1.23 1.25 1.24 1.20 1.23 1.29 1.35 1.45 1.47 1.51 1.54 1.54 1.59 1.63 1.72 1.86 2.01 2.01 2.02 1.89 1.92 2.05 2.14 2.34 2.37 2.33 2.29 2.27 2.20
1.29 1.30 1.39 1.36 1.26 1.22 1.11 1.17 1.25 1.25 1.34 1.37 1.30 1.24 1.33 1.36 1.40 1.36 1.33 1.33 1.34 1.33 1.38 1.48 1.43 1.41 1.45 1.52 1.62 1.71 1.75 1.80 1.77 1.67 1.70 1.82 1.90 2.06 2.17 2.27 2.17 2.17 2.15
1.05 1.01 1.09 1.21 1.18 1.13 1.05 1.14 1.20 1.26 1.29 1.37 1.40 1.29 1.21 1.27 1.32 1.35 1.32 1.28 1.27 1.28 1.36 1.47 1.56 1.46 1.37 1.44 1.50 1.54 1.54 1.52 1.45 1.43 1.50 1.58 1.65 1.78 1.89 1.99 2.08 2.10 2.05
0.82 0.76 0.76 0.87 0.89 0.90 0.98 1.05 1.18 1.33 1.36 1.39 1.37 1.36 1.31 1.34 1.28 1.21 1.20 1.19 1.16 1.12 1.17 1.30 1.41 1.44 1.38 1.33 1.31 1.29 1.42 1.40 1.28 1.18 1.18 1.22 1.27 1.40 1.54 1.65 1.81 1.97 2.10
0.61 0.62 0.61 0.63 0.65 0.70 0.80 0.88 0.99 1.20 1.33 1.42 1.43 1.35 1.31 1.27 1.24 1.18 1.09 1.09 1.02 0.99 1.04 1.21 1.37 1.43 1.41 1.41 1.38 1.27 1.28 1.33 1.32 1.24 1.11 1.01 1.04 1.17 1.26 1.35 1.61 1.81 1.98
0.43 0.44 0.48 0.51 0.56 0.60 0.68 0.72 0.84 1.01 1.13 1.20 1.25 1.33 1.31 1.16 1.09 1.04 1.03 1.01 0.96 0.93 0.94 1.03 1.17 1.32 1.29 1.47 1.50 1.39 1.24 1.23 1.24 1.23 1.19 1.16 1.13 1.03 0.98 1.06 1.23 1.48 1.68
0.38 0.36 0.37 0.41 0.49 0.58 0.61 0.66 0.78 0.93 0.99 1.07 1.10 1.17 1.18 1.05 0.98 0.90 0.85 0.88 0.87 0.90 0.90 0.97 1.11 1.26 1.45 1.52 1.34 1.40 1.33 1.25 1.23 1.20 1.19 1.21 1.18 1.24 1.09 1.04 1.03 1.06 1.25
0.31 0.35 0.32 0.33 0.37 0.45 0.56 0.70 0.76 0.78 0.81 0.89 0.94 0.95 0.96 0.93 0.87 0.77 0.75 0.79 0.84 0.89 0.91 0.97 1.06 1.14 1.39 1.48 1.29 1.47 1.47 1.41 1.36 1.30 1.31 1.36 1.38 1.31 1.42 1.37 1.23 1.11 1.10
0.23 0.26 0.26 0.26 0.27 0.30 0.34 0.40 0.47 0.53 0.57 0.68 0.76 0.80 0.83 0.82 0.78 0.74 0.82 0.86 0.85 0.87 0.90 0.89 0.91 0.93 1.05 1.20 1.14 1.28 1.37 1.48 1.46 1.33 1.31 1.34 1.33 1.56 1.64 1.49 1.40 1.28 1.19
0.14 0.17 0.20 0.20 0.19 0.20 0.21 0.26 0.33 0.39 0.43 0.50 0.58 0.65 0.73 0.76 0.81 0.94 1.05 1.08 1.03 0.94 0.87 0.83 0.81 0.83 0.86 1.06 0.94 1.06 1.14 1.31 1.45 1.41 1.34 1.51 1.44 1.46 1.43 1.32 1.46 1.40 1.27
0.12 0.14 0.17 0.17 0.18 0.19 0.18 0.22 0.27 0.29 0.34 0.34 0.42 0.53 0.69 0.78 0.90 1.06 1.10 1.08 1.03 0.92 0.81 0.78 0.77 0.76 0.84 1.05 1.02 1.09 1.11 1.21 1.31 1.35 1.36 1.32 1.46 1.30 1.26 1.26 1.31 1.44 1.40
0.15 0.14 0.14 0.13 0.16 0.19 0.18 0.21 0.29 0.31 0.37 0.40 0.41 0.47 0.59 0.74 0.91 1.05 1.05 1.06 1.06 0.97 0.86 0.83 0.81 0.83 0.94 1.03 1.07 1.08 1.12 1.19 1.23 1.18 1.08 1.09 1.22 1.09 1.06 1.04 1.14 1.32 1.34
0.18 0.17 0.15 0.14 0.15 0.17 0.20 0.23 0.27 0.31 0.35 0.40 0.37 0.38 0.47 0.61 0.79 0.89 0.92 0.96 1.00 0.96 0.91 0.86 0.82 0.84 0.91 1.04 1.21 1.09 1.00 0.98 1.00 1.00 1.02 0.96 0.94 0.94 0.87 0.91 1.04 1.10 1.22
0.18 0.17 0.16 0.16 0.16 0.18 0.21 0.26 0.31 0.33 0.33 0.34 0.37 0.36 0.37 0.40 0.49 0.58 0.64 0.73 0.79 0.80 0.81 0.82 0.82 0.84 0.85 0.85 0.97 1.02 0.94 0.86 0.83 0.81 0.75 0.74 0.77 0.81 0.81 0.81 0.82 0.89 1.12
0.22 0.20 0.19 0.20 0.19 0.20 0.21 0.25 0.30 0.34 0.35 0.35 0.38 0.39 0.40 0.41 0.43 0.45 0.49 0.54 0.58 0.69 0.77 0.78 0.80 0.79 0.78 0.81 0.91 0.91 0.89 0.91 0.94 0.95 0.85 0.78 0.75 0.75 0.77 0.77 0.82 0.95 1.09
0.23 0.24 0.24 0.25 0.24 0.23 0.24 0.25 0.26 0.29 0.32 0.34 0.34 0.33 0.35 0.38 0.38 0.41 0.45 0.50 0.50 0.58 0.62 0.63 0.65 0.61 0.68 0.77 0.76 0.76 0.78 0.84 0.93 0.97 0.92 0.93 0.92 0.90 0.88 0.86 0.82 0.84 0.94